Tracking 22459 objects as of 3-Mar-2021
HD Live streaming from Space Station
objects crossing your sky now

COSMOS 1375 DEB

Track COSMOS 1375 DEB now!
10-day predictions


NORAD ID: 16377
Int'l Code: 1982-055R
Perigee: 862.2 km
Apogee: 936.2 km
Inclination: 65.8 °
Period: 102.8 minutes
Semi major axis: 7270 km
RCS: 0.033 m2 (small)
Launch date: June 6, 1982
Source: Commonwealth of Independent States (former USSR) (CIS)
Launch site: PLESETSK MISSILE AND SPACE COMPLEX (PKMTR)

Note: This is SATELLITE DEBRIS
aabbcc
Your satellite tracking list
Your tracking list is empty




NASA's NSSDC Master Catalog

Two Line Element Set (TLE):
1 16377U 82055R   21061.89190292  .00000355  00000-0  29364-3 0  9994
2 16377  65.8266 326.9291 0050910 299.4069 178.5102 14.00496030795962
Source of the keplerian elements: AFSPC